Location: Unspecified
(0.0000°N, 0.0000°E)
Time: 12:03:47
(UTC+00:00)

COSMOS 1275 DEB - Pass Details

Date: 18 February 2026
Orbit: 902 x 1038 km, 83.0° (Epoch: 19 November)

Event Time Altitude Azimuth Distance (km) Brightness Sun altitude
Rises 03:49:41 0° 153° (SSE) 3,731 ? -35.2°
Reaches altitude 10° 03:53:09 10° 135° (SE) 2,762 ? -34.4°
Maximum altitude 03:57:15 18° 94° (E) 2,202 ? -33.4°
Drops below altitude 10° 04:01:17 10° 53° (NE) 2,705 ? -32.4°
Sets 04:04:35 0° 35° (NE) 3,626 ? -31.6°
